When you browse on this site, cookies collect data to enhance your experience and personalize the content and advertising you see.
Visit our Privacy Policy to learn more. By continuing to use the site, you agree to this use of cookies and data.
  • In Latvia
  • List of Countries
  • For 7 days
  • Water Temperature
  • Satellite Maps
  • Weather Map
  • Weather Widgets
  • user-avatar
    Login

    Hourly Weather Saga

    Today, 15 December, Saturday

    Time Temperature Precipitation Wind Pressure Humidity
    00:00 +5°C° 0 mm 3 mps 772 mmHg 56%
    01:00 +6°C° 0 mm 2 mps 772 mmHg 57%
    02:00 +6°C° 0 mm 2 mps 772 mmHg 58%
    03:00 +6°C° 0 mm 2 mps 772 mmHg 61%
    04:00 +6°C° 0 mm 2 mps 772 mmHg 62%
    05:00 +6°C° 0 mm 2 mps 772 mmHg 64%
    06:00 +6°C° 0 mm 2 mps 772 mmHg 65%
    07:00 +7°C° 0 mm 2 mps 772 mmHg 63%
    08:00 +7°C° 0 mm 2 mps 772 mmHg 61%
    09:00 +9°C° 0 mm 1 mps 772 mmHg 57%
    10:00 +10°C° 0 mm 1 mps 772 mmHg 55%
    11:00 +11°C° 0 mm 1 mps 772 mmHg 52%
    12:00 +12°C° 0 mm 2 mps 771 mmHg 50%
    13:00 +13°C° 0 mm 2 mps 771 mmHg 49%
    14:00 +13°C° 0 mm 2 mps 771 mmHg 48%
    15:00 +13°C° 0 mm 2 mps 770 mmHg 47%
    16:00 +13°C° 0 mm 2 mps 770 mmHg 51%
    17:00 +12°C° 0 mm 2 mps 770 mmHg 54%
    18:00 +11°C° 0 mm 1 mps 770 mmHg 58%
    19:00 +11°C° 0 mm 1 mps 770 mmHg 61%
    20:00 +10°C° 0 mm 1 mps 770 mmHg 64%
    21:00 +10°C° 0 mm 1 mps 770 mmHg 66%
    22:00 +10°C° 0 mm 1 mps 770 mmHg 68%
    23:00 +9°C° 0 mm 1 mps 770 mmHg 70%

    Tomorrow, 16 December, Sunday

    Time Temperature Precipitation Wind Pressure Humidity
    00:00 +9°C° 0 mm 1 mps 769 mmHg 71%
    01:00 +9°C° 0 mm 1 mps 769 mmHg 71%
    02:00 +9°C° 0 mm 1 mps 768 mmHg 70%
    03:00 +9°C° 0 mm 1 mps 768 mmHg 70%
    04:00 +9°C° 0 mm 1 mps 768 mmHg 69%
    05:00 +9°C° 0 mm 1 mps 767 mmHg 68%
    06:00 +9°C° 0 mm 1 mps 767 mmHg 67%
    07:00 +9°C° 0.1 mm 1 mps 767 mmHg 67%
    08:00 +10°C° 0.1 mm 1 mps 766 mmHg 67%
    09:00 +10°C° 0.1 mm 1 mps 766 mmHg 67%
    10:00 +10°C° 0.4 mm 1 mps 766 mmHg 69%
    11:00 +11°C° 0.4 mm 1 mps 765 mmHg 72%
    12:00 +11°C° 0.4 mm 1 mps 765 mmHg 74%
    13:00 +11°C° 0.2 mm 1 mps 764 mmHg 74%
    14:00 +12°C° 0.2 mm 1 mps 764 mmHg 75%
    15:00 +12°C° 0.2 mm 1 mps 763 mmHg 75%
    16:00 +12°C° 1.1 mm 2 mps 763 mmHg 79%
    17:00 +10°C° 1.1 mm 2 mps 763 mmHg 83%
    18:00 +10°C° 1.1 mm 3 mps 762 mmHg 87%
    19:00 +10°C° 0.5 mm 3 mps 762 mmHg 86%
    20:00 +10°C° 0.5 mm 2 mps 762 mmHg 85%
    21:00 +10°C° 0.5 mm 2 mps 762 mmHg 85%
    22:00 +10°C° 0 mm 2 mps 762 mmHg 84%
    23:00 +10°C° 0 mm 2 mps 762 mmHg 84%

    Day after tomorrow, 17 December, Monday

    Time Temperature Precipitation Wind Pressure Humidity
    00:00 +9°C° 0 mm 2 mps 762 mmHg 84%
    01:00 +9°C° 0 mm 2 mps 761 mmHg 83%
    02:00 +9°C° 0 mm 2 mps 761 mmHg 83%
    03:00 +9°C° 0 mm 2 mps 761 mmHg 82%
    04:00 +9°C° 0.2 mm 3 mps 761 mmHg 82%
    05:00 +10°C° 0.2 mm 4 mps 761 mmHg 83%
    06:00 +10°C° 0.2 mm 4 mps 761 mmHg 83%
    07:00 +9°C° 0.2 mm 5 mps 761 mmHg 78%
    08:00 +9°C° 0.2 mm 6 mps 762 mmHg 73%
    09:00 +10°C° 0.2 mm 6 mps 762 mmHg 68%
    10:00 +10°C° 0.1 mm 6 mps 762 mmHg 65%
    11:00 +10°C° 0.1 mm 7 mps 762 mmHg 62%
    12:00 +10°C° 0.1 mm 7 mps 762 mmHg 58%
    13:00 +10°C° 0.1 mm 7 mps 762 mmHg 58%
    14:00 +10°C° 0.1 mm 7 mps 762 mmHg 58%
    15:00 +10°C° 0.1 mm 7 mps 762 mmHg 57%
    16:00 +9°C° 0.1 mm 7 mps 762 mmHg 58%
    17:00 +9°C° 0.1 mm 6 mps 763 mmHg 59%
    18:00 +9°C° 0.1 mm 6 mps 763 mmHg 60%
    19:00 +9°C° 0.1 mm 6 mps 763 mmHg 60%
    20:00 +8°C° 0.1 mm 6 mps 763 mmHg 60%
    21:00 +8°C° 0.1 mm 5 mps 764 mmHg 60%
    22:00 +8°C° 0 mm 5 mps 764 mmHg 60%
    23:00 +8°C° 0 mm 5 mps 764 mmHg 60%

    18 December, Tuesday

    Time Temperature Precipitation Wind Pressure Humidity
    00:00 +8°C° 0 mm 5 mps 764 mmHg 60%
    01:00 +8°C° 0 mm 5 mps 764 mmHg 61%
    02:00 +8°C° 0 mm 5 mps 764 mmHg 62%
    03:00 +7°C° 0 mm 4 mps 764 mmHg 63%
    04:00 +7°C° 0 mm 4 mps 764 mmHg 63%
    05:00 +7°C° 0 mm 4 mps 764 mmHg 64%
    06:00 +7°C° 0 mm 4 mps 764 mmHg 64%
    07:00 +7°C° 0 mm 4 mps 765 mmHg 64%
    08:00 +8°C° 0 mm 4 mps 765 mmHg 63%
    09:00 +8°C° 0 mm 4 mps 766 mmHg 62%
    10:00 +10°C° 0 mm 4 mps 765 mmHg 61%
    11:00 +10°C° 0 mm 4 mps 765 mmHg 60%
    12:00 +10°C° 0 mm 4 mps 765 mmHg 58%
    13:00 +10°C° 0.1 mm 4 mps 765 mmHg 59%
    14:00 +11°C° 0.1 mm 4 mps 765 mmHg 59%
    15:00 +11°C° 0.1 mm 4 mps 764 mmHg 60%
    16:00 +10°C° 0.1 mm 4 mps 765 mmHg 61%
    17:00 +10°C° 0.1 mm 4 mps 765 mmHg 62%
    18:00 +10°C° 0.1 mm 4 mps 765 mmHg 64%
    19:00 +10°C° 0 mm 4 mps 766 mmHg 63%
    20:00 +10°C° 0 mm 4 mps 766 mmHg 63%
    21:00 +10°C° 0 mm 3 mps 766 mmHg 62%
    22:00 +10°C° 0 mm 3 mps 766 mmHg 62%
    23:00 +10°C° 0 mm 3 mps 766 mmHg 63%

    19 December, Wednesday

    Time Temperature Precipitation Wind Pressure Humidity
    00:00 +10°C° 0 mm 3 mps 766 mmHg 63%
    01:00 +10°C° 0 mm 3 mps 766 mmHg 63%
    02:00 +10°C° 0 mm 3 mps 766 mmHg 63%
    03:00 +10°C° 0 mm 3 mps 766 mmHg 63%
    04:00 +11°C° 0 mm 3 mps 766 mmHg 63%
    05:00 +11°C° 0 mm 3 mps 766 mmHg 63%
    06:00 +11°C° 0 mm 3 mps 766 mmHg 63%
    07:00 +11°C° 0 mm 3 mps 767 mmHg 63%
    08:00 +11°C° 0 mm 3 mps 767 mmHg 62%
    09:00 +12°C° 0 mm 3 mps 767 mmHg 62%
    10:00 +12°C° 0 mm 3 mps 768 mmHg 59%
    11:00 +13°C° 0 mm 3 mps 768 mmHg 56%
    12:00 +14°C° 0 mm 3 mps 768 mmHg 53%
    13:00 +14°C° 0 mm 3 mps 767 mmHg 53%
    14:00 +14°C° 0 mm 3 mps 767 mmHg 53%
    15:00 +14°C° 0 mm 3 mps 767 mmHg 53%
    16:00 +13°C° 0 mm 3 mps 767 mmHg 55%
    17:00 +14°C° 0 mm 2 mps 767 mmHg 57%
    18:00 +13°C° 0 mm 2 mps 768 mmHg 59%
    19:00 +13°C° 0 mm 2 mps 768 mmHg 61%
    20:00 +12°C° 0 mm 1 mps 768 mmHg 62%
    21:00 +12°C° 0 mm 1 mps 768 mmHg 64%
    22:00 +12°C° 0 mm 1 mps 768 mmHg 65%
    23:00 +12°C° 0 mm 1 mps 768 mmHg 65%

    20 December, Thursday

    Time Temperature Precipitation Wind Pressure Humidity
    00:00 +12°C° 0 mm 1 mps 768 mmHg 66%
    01:00 +12°C° 0 mm 1 mps 768 mmHg 66%
    02:00 +12°C° 0 mm 1 mps 768 mmHg 66%
    03:00 +12°C° 0 mm 1 mps 768 mmHg 66%
    04:00 +12°C° 0 mm 1 mps 768 mmHg 66%
    05:00 +11°C° 0 mm 1 mps 768 mmHg 67%
    06:00 +11°C° 0 mm 1 mps 768 mmHg 67%
    07:00 +12°C° 0 mm 1 mps 769 mmHg 66%
    08:00 +12°C° 0 mm 1 mps 769 mmHg 65%
    09:00 +12°C° 0 mm 1 mps 769 mmHg 64%
    10:00 +13°C° 0 mm 1 mps 769 mmHg 60%
    11:00 +14°C° 0 mm 1 mps 769 mmHg 56%
    12:00 +14°C° 0 mm 1 mps 769 mmHg 53%
    13:00 +15°C° 0 mm 2 mps 768 mmHg 50%
    14:00 +15°C° 0 mm 2 mps 767 mmHg 47%
    15:00 +16°C° 0 mm 2 mps 767 mmHg 44%
    16:00 +15°C° 0 mm 2 mps 767 mmHg 46%
    17:00 +15°C° 0 mm 2 mps 767 mmHg 48%
    18:00 +14°C° 0 mm 2 mps 767 mmHg 50%
    19:00 +14°C° 0.1 mm 2 mps 767 mmHg 54%
    20:00 +14°C° 0.1 mm 2 mps 767 mmHg 59%
    21:00 +13°C° 0.1 mm 2 mps 767 mmHg 64%
    22:00 +12°C° 0.2 mm 3 mps 767 mmHg 68%
    23:00 +12°C° 0.2 mm 3 mps 766 mmHg 71%
    Show more